EW6420 Weather Reports


time (UTC)temp
C
wind
direction
speed
KPH
gust
KPH
rain 1hr
cm
rain 24hr
cm
rain mn
cm
humidity
%
barometer
mb
20260505124501 12 177 0.0 0.0 0.00 0.00 0.00 83 1014.0
20260505123002 12 177 0.0 0.0 0.00 0.00 0.00 83 1014.0
20260505121502 12 177 0.0 0.0 0.00 0.00 0.00 83 1013.9
20260505120003 12 177 0.0 3.2 0.00 0.00 0.00 83 1013.9
20260505114502 12 177 0.0 0.0 0.00 0.00 0.00 83 1013.8
20260505111502 12 177 0.0 0.0 0.00 0.00 0.00 83 1013.8
20260505101503 12 177 0.0 3.2 0.00 0.00 0.00 84 1013.4
20260505100005 12 177 0.0 0.0 0.00 0.00 0.00 84 1013.4
20260505093001 12 81 0.0 0.0 0.00 0.00 0.00 85 1013.1
20260505091502 11 81 0.0 0.0 0.00 0.00 0.00 85 1013.1
20260505090002 11 81 0.0 0.0 0.00 0.00 0.00 85 1013.0
20260505084501 11 81 0.0 0.0 0.00 0.00 0.00 84 1012.9
20260505083001 12 81 0.0 0.0 0.00 0.00 0.00 83 1012.9
20260505081502 12 81 0.0 0.0 0.00 0.00 0.00 83 1012.8
20260505080005 12 81 0.0 0.0 0.00 0.00 0.00 82 1012.7
20260505074504 12 81 0.0 0.0 0.00 0.00 0.00 82 1012.6
20260505073005 12 81 0.0 0.0 0.00 0.00 0.00 81 1012.5
20260505071505 13 81 0.0 0.0 0.00 0.00 0.00 80 1012.3
20260505070009 13 81 0.0 0.0 0.00 0.00 0.00 79 1012.2
20260505064505 13 81 0.0 0.0 0.00 0.00 0.00 78 1012.1
20260505063004 13 81 0.0 0.0 0.00 0.00 0.00 78 1011.8
20260505053005 15 81 0.0 3.2 0.00 0.00 0.00 74 1011.4
20260505051505 15 81 0.0 0.0 0.00 0.00 0.00 73 1011.3
20260505041502 17 81 0.0 0.0 0.00 0.00 0.00 66 1010.6
20260505040006 17 81 0.0 1.6 0.00 0.00 0.00 64 1010.5
20260505034504 18 81 0.0 0.0 0.00 0.00 0.00 62 1010.3
20260505033006 19 81 0.0 3.2 0.00 0.00 0.00 61 1010.0
20260505030008 20 81 0.0 3.2 0.00 0.00 0.00 58 1009.6
20260505024502 20 81 0.0 3.2 0.00 0.00 0.00 56 1009.4
20260505023003 21 81 0.0 3.2 0.00 0.00 0.00 55 1009.3
20260505021505 22 81 0.0 3.2 0.00 0.00 0.00 53 1009.3
20260505020007 22 81 0.0 3.2 0.00 0.00 0.00 52 1009.2
20260505014509 22 81 0.0 3.2 0.00 0.00 0.00 51 1009.2
20260505013006 23 81 0.0 3.2 0.00 0.00 0.00 51 1009.1
20260505011509 23 81 0.0 3.2 0.00 0.00 0.00 50 1009.2
20260505010012 24 81 0.0 3.2 0.00 0.00 0.00 50 1009.2
20260505004504 25 81 0.0 3.2 0.00 0.00 0.00 49 1009.2
20260505003005 25 81 0.0 3.2 0.00 0.00 0.00 48 1009.1
20260505001509 25 81 0.0 3.2 0.00 0.00 0.00 48 1009.1
20260505000006 25 81 0.0 3.2 0.00 0.00 0.00 47 1009.0
20260504234508 25 92 0.0 3.2 0.00 0.00 0.00 48 1009.0
20260504233003 25 137 0.0 3.2 0.00 0.00 0.00 45 1009.1
20260504231504 25 142 0.0 3.2 0.00 0.00 0.00 44 1009.2
20260504230005 25 96 0.0 3.2 0.00 0.00 0.00 45 1009.3
20260504224504 25 100 0.0 3.2 0.00 0.00 0.00 46 1009.5
20260504223005 25 80 0.0 3.2 0.00 0.00 0.00 47 1009.5
20260504221503 25 81 0.0 3.2 0.00 0.00 0.00 49 1009.7
20260504220007 25 115 0.0 4.8 0.00 0.00 0.00 48 1009.8
20260504214502 25 78 0.0 3.2 0.00 0.00 0.00 48 1009.8
20260504213002 24 112 0.0 3.2 0.00 0.00 0.00 48 1009.9
20260504211503 24 106 0.0 3.2 0.00 0.00 0.00 47 1010.0
20260504204504 23 116 0.0 3.2 0.00 0.00 0.00 48 1010.1
20260504203003 23 116 0.0 3.2 0.00 0.00 0.00 47 1010.2
20260504201502 22 108 0.0 0.0 0.00 0.00 0.00 47 1010.3
20260504200004 22 81 0.0 0.0 0.00 0.00 0.00 48 1010.4
20260504194507 22 81 0.0 0.0 0.00 0.00 0.00 49 1010.4
20260504193005 21 145 0.0 0.0 0.00 0.00 0.00 49 1010.4
20260504191503 21 66 0.0 0.0 0.00 0.00 0.00 52 1010.6
20260504190004 21 88 0.0 0.0 0.00 0.00 0.00 54 1010.7
20260504183005 20 88 0.0 0.0 0.00 0.00 0.00 54 1011.0
20260504181502 20 88 0.0 0.0 0.00 0.00 0.00 55 1011.0
20260504180002 20 88 0.0 0.0 0.00 0.00 0.00 56 1010.9
20260504174502 19 90 0.0 0.0 0.00 0.00 0.00 59 1011.0
20260504173002 18 91 0.0 0.0 0.00 0.00 0.00 58 1011.0
20260504171503 18 44 0.0 0.0 0.00 0.00 0.00 58 1011.0